owner,sensor,date,latitude,longitude,vertical_datum,mass_concentration_of_oxygen_in_sea_water,qcFlag 
LUMCON,ioos:station:LUMCON:102:1,2019-06-01T00:00:00Z,29.1870,-90.6093,2.15,8.48,11111222 
LUMCON,ioos:station:LUMCON:102:1,2019-06-01T00:15:00Z,29.1870,-90.6093,2.15,8.45,11111222 
LUMCON,ioos:station:LUMCON:102:1,2019-06-01T00:30:00Z,29.1870,-90.6093,2.16,8.14,11111222 
LUMCON,ioos:station:LUMCON:102:1,2019-06-01T00:45:00Z,29.1870,-90.6093,2.16,8.09,11111222 
LUMCON,ioos:station:LUMCON:102:1,2019-06-01T01:00:00Z,29.1870,-90.6093,2.17,7.94,11111222 
LUMCON,ioos:station:LUMCON:102:1,2019-06-01T01:15:00Z,29.1870,-90.6093,2.18,7.83,11111222 
LUMCON,ioos:station:LUMCON:102:1,2019-06-01T01:30:00Z,29.1870,-90.6093,2.18,8.74,11111222 
LUMCON,ioos:station:LUMCON:102:1,2019-06-01T01:45:00Z,29.1870,-90.6093,2.17,7.84,11111222 
LUMCON,ioos:station:LUMCON:102:1,2019-06-01T02:00:00Z,29.1870,-90.6093,2.18,7.54,11111222 
LUMCON,ioos:station:LUMCON:102:1,2019-06-01T02:15:00Z,29.1870,-90.6093,2.18,7.53,11111222 
LUMCON,ioos:station:LUMCON:102:1,2019-06-01T02:30:00Z,29.1870,-90.6093,2.19,7.42,11111222 
LUMCON,ioos:station:LUMCON:102:1,2019-06-01T02:45:00Z,29.1870,-90.6093,2.2,7.41,11111222 
LUMCON,ioos:station:LUMCON:102:1,2019-06-01T03:00:00Z,29.1870,-90.6093,2.22,7.46,11111222 
LUMCON,ioos:station:LUMCON:102:1,2019-06-01T03:15:00Z,29.1870,-90.6093,2.22,7.47,11111222 
LUMCON,ioos:station:LUMCON:102:1,2019-06-01T03:30:00Z,29.1870,-90.6093,2.22,7.28,11111222 
LUMCON,ioos:station:LUMCON:102:1,2019-06-01T03:45:00Z,29.1870,-90.6093,2.23,7.14,11111222 
LUMCON,ioos:station:LUMCON:102:1,2019-06-01T04:00:00Z,29.1870,-90.6093,2.25,7.22,11111222 
LUMCON,ioos:station:LUMCON:102:1,2019-06-01T04:15:00Z,29.1870,-90.6093,2.27,7.0,11111222 
LUMCON,ioos:station:LUMCON:102:1,2019-06-01T04:30:00Z,29.1870,-90.6093,2.26,7.34,11111222 
LUMCON,ioos:station:LUMCON:102:1,2019-06-01T04:45:00Z,29.1870,-90.6093,2.28,7.1,11111222 
LUMCON,ioos:station:LUMCON:102:1,2019-06-01T05:00:00Z,29.1870,-90.6093,2.29,7.35,11111222 
LUMCON,ioos:station:LUMCON:102:1,2019-06-01T05:15:00Z,29.1870,-90.6093,2.29,7.18,11111222 
LUMCON,ioos:station:LUMCON:102:1,2019-06-01T05:30:00Z,29.1870,-90.6093,2.29,7.04,11111222 
LUMCON,ioos:station:LUMCON:102:1,2019-06-01T05:45:00Z,29.1870,-90.6093,2.3,7.19,11111222 
LUMCON,ioos:station:LUMCON:102:1,2019-06-01T06:00:00Z,29.1870,-90.6093,2.3,7.17,11111222 
LUMCON,ioos:station:LUMCON:102:1,2019-06-01T06:15:00Z,29.1870,-90.6093,2.32,7.35,11111222 
LUMCON,ioos:station:LUMCON:102:1,2019-06-01T06:30:00Z,29.1870,-90.6093,2.33,7.56,11111222 
LUMCON,ioos:station:LUMCON:102:1,2019-06-01T06:45:00Z,29.1870,-90.6093,2.31,7.41,11111222 
LUMCON,ioos:station:LUMCON:102:1,2019-06-01T07:00:00Z,29.1870,-90.6093,2.33,7.42,11111222 
LUMCON,ioos:station:LUMCON:102:1,2019-06-01T07:15:00Z,29.1870,-90.6093,2.34,7.23,11111222 
LUMCON,ioos:station:LUMCON:102:1,2019-06-01T07:30:00Z,29.1870,-90.6093,2.34,7.45,11111222 
LUMCON,ioos:station:LUMCON:102:1,2019-06-01T07:45:00Z,29.1870,-90.6093,2.35,7.31,11111222 
LUMCON,ioos:station:LUMCON:102:1,2019-06-01T08:00:00Z,29.1870,-90.6093,2.37,7.37,11111222 
LUMCON,ioos:station:LUMCON:102:1,2019-06-01T08:15:00Z,29.1870,-90.6093,2.39,7.58,11111222 
LUMCON,ioos:station:LUMCON:102:1,2019-06-01T08:30:00Z,29.1870,-90.6093,2.38,7.44,11111222 
LUMCON,ioos:station:LUMCON:102:1,2019-06-01T08:45:00Z,29.1870,-90.6093,2.39,7.41,11111222 
LUMCON,ioos:station:LUMCON:102:1,2019-06-01T09:00:00Z,29.1870,-90.6093,2.4,7.28,11111222 
LUMCON,ioos:station:LUMCON:102:1,2019-06-01T09:15:00Z,29.1870,-90.6093,2.39,7.35,11111222 
LUMCON,ioos:station:LUMCON:102:1,2019-06-01T09:30:00Z,29.1870,-90.6093,2.4,7.4,11111222 
LUMCON,ioos:station:LUMCON:102:1,2019-06-01T09:45:00Z,29.1870,-90.6093,2.38,7.53,11111222 
LUMCON,ioos:station:LUMCON:102:1,2019-06-01T10:00:00Z,29.1870,-90.6093,2.39,7.57,11111222 
LUMCON,ioos:station:LUMCON:102:1,2019-06-01T10:15:00Z,29.1870,-90.6093,2.39,7.35,11111222 
LUMCON,ioos:station:LUMCON:102:1,2019-06-01T10:30:00Z,29.1870,-90.6093,2.4,7.32,11111222 
LUMCON,ioos:station:LUMCON:102:1,2019-06-01T10:45:00Z,29.1870,-90.6093,2.4,7.33,11111222 
LUMCON,ioos:station:LUMCON:102:1,2019-06-01T11:00:00Z,29.1870,-90.6093,2.42,7.75,11111222 
LUMCON,ioos:station:LUMCON:102:1,2019-06-01T11:15:00Z,29.1870,-90.6093,2.43,7.69,11111222 
LUMCON,ioos:station:LUMCON:102:1,2019-06-01T11:30:00Z,29.1870,-90.6093,2.43,7.69,11111222 
LUMCON,ioos:station:LUMCON:102:1,2019-06-01T11:45:00Z,29.1870,-90.6093,2.44,7.74,11111222 
LUMCON,ioos:station:LUMCON:102:1,2019-06-01T12:00:00Z,29.1870,-90.6093,2.45,7.47,11111222 
LUMCON,ioos:station:LUMCON:102:1,2019-06-01T12:15:00Z,29.1870,-90.6093,2.45,7.32,11111222 
LUMCON,ioos:station:LUMCON:102:1,2019-06-01T12:30:00Z,29.1870,-90.6093,2.47,7.43,11111222 
LUMCON,ioos:station:LUMCON:102:1,2019-06-01T12:45:00Z,29.1870,-90.6093,2.46,7.13,11111222 
LUMCON,ioos:station:LUMCON:102:1,2019-06-01T13:00:00Z,29.1870,-90.6093,2.46,7.01,11111222 
LUMCON,ioos:station:LUMCON:102:1,2019-06-01T13:15:00Z,29.1870,-90.6093,2.47,7.05,11111222 
LUMCON,ioos:station:LUMCON:102:1,2019-06-01T13:30:00Z,29.1870,-90.6093,2.47,6.93,11111222 
LUMCON,ioos:station:LUMCON:102:1,2019-06-01T13:45:00Z,29.1870,-90.6093,2.47,6.63,11111222 
LUMCON,ioos:station:LUMCON:102:1,2019-06-01T14:00:00Z,29.1870,-90.6093,2.47,6.7,11111222 
LUMCON,ioos:station:LUMCON:102:1,2019-06-01T14:15:00Z,29.1870,-90.6093,2.48,6.9,11111222 
LUMCON,ioos:station:LUMCON:102:1,2019-06-01T14:30:00Z,29.1870,-90.6093,2.47,6.74,11111222 
LUMCON,ioos:station:LUMCON:102:1,2019-06-01T14:45:00Z,29.1870,-90.6093,2.47,6.82,11111222 
LUMCON,ioos:station:LUMCON:102:1,2019-06-01T15:00:00Z,29.1870,-90.6093,2.47,6.75,11111222 
LUMCON,ioos:station:LUMCON:102:1,2019-06-01T15:15:00Z,29.1870,-90.6093,2.45,6.69,11111222 
LUMCON,ioos:station:LUMCON:102:1,2019-06-01T15:30:00Z,29.1870,-90.6093,2.45,6.65,11111222 
LUMCON,ioos:station:LUMCON:102:1,2019-06-01T15:45:00Z,29.1870,-90.6093,2.45,6.86,11111222 
LUMCON,ioos:station:LUMCON:102:1,2019-06-01T16:00:00Z,29.1870,-90.6093,2.45,6.32,11111222 
LUMCON,ioos:station:LUMCON:102:1,2019-06-01T16:15:00Z,29.1870,-90.6093,2.45,6.39,11111222 
LUMCON,ioos:station:LUMCON:102:1,2019-06-01T16:30:00Z,29.1870,-90.6093,2.44,6.2,11111222 
LUMCON,ioos:station:LUMCON:102:1,2019-06-01T16:45:00Z,29.1870,-90.6093,2.46,6.63,11111222 
LUMCON,ioos:station:LUMCON:102:1,2019-06-01T17:00:00Z,29.1870,-90.6093,2.44,6.6,11111222 
LUMCON,ioos:station:LUMCON:102:1,2019-06-01T17:15:00Z,29.1870,-90.6093,2.44,6.57,11111222 
LUMCON,ioos:station:LUMCON:102:1,2019-06-01T17:30:00Z,29.1870,-90.6093,2.42,6.35,11111222 
LUMCON,ioos:station:LUMCON:102:1,2019-06-01T17:45:00Z,29.1870,-90.6093,2.41,6.3,11111222 
LUMCON,ioos:station:LUMCON:102:1,2019-06-01T18:00:00Z,29.1870,-90.6093,2.4,6.54,11111222 
LUMCON,ioos:station:LUMCON:102:1,2019-06-01T18:15:00Z,29.1870,-90.6093,2.39,6.73,11111222 
LUMCON,ioos:station:LUMCON:102:1,2019-06-01T18:30:00Z,29.1870,-90.6093,2.37,6.77,11111222 
LUMCON,ioos:station:LUMCON:102:1,2019-06-01T18:45:00Z,29.1870,-90.6093,2.34,6.76,11111222 
LUMCON,ioos:station:LUMCON:102:1,2019-06-01T19:00:00Z,29.1870,-90.6093,2.33,7.11,11111222 
LUMCON,ioos:station:LUMCON:102:1,2019-06-01T19:15:00Z,29.1870,-90.6093,2.31,7.31,11111222 
LUMCON,ioos:station:LUMCON:102:1,2019-06-01T19:30:00Z,29.1870,-90.6093,2.3,7.5,11111222 
LUMCON,ioos:station:LUMCON:102:1,2019-06-01T19:45:00Z,29.1870,-90.6093,2.28,7.57,11111222 
LUMCON,ioos:station:LUMCON:102:1,2019-06-01T20:00:00Z,29.1870,-90.6093,2.27,7.92,11111222 
LUMCON,ioos:station:LUMCON:102:1,2019-06-01T20:15:00Z,29.1870,-90.6093,2.25,8.0,11111222 
LUMCON,ioos:station:LUMCON:102:1,2019-06-01T20:30:00Z,29.1870,-90.6093,2.23,8.33,11111222 
LUMCON,ioos:station:LUMCON:102:1,2019-06-01T20:45:00Z,29.1870,-90.6093,2.21,8.31,11111222 
LUMCON,ioos:station:LUMCON:102:1,2019-06-01T21:00:00Z,29.1870,-90.6093,2.2,8.21,11111222 
LUMCON,ioos:station:LUMCON:102:1,2019-06-01T21:15:00Z,29.1870,-90.6093,2.19,8.33,11111222 
LUMCON,ioos:station:LUMCON:102:1,2019-06-01T21:30:00Z,29.1870,-90.6093,2.17,8.35,11111222 
LUMCON,ioos:station:LUMCON:102:1,2019-06-01T21:45:00Z,29.1870,-90.6093,2.14,8.29,11111222 
LUMCON,ioos:station:LUMCON:102:1,2019-06-01T22:00:00Z,29.1870,-90.6093,2.13,8.47,11111222 
LUMCON,ioos:station:LUMCON:102:1,2019-06-01T22:15:00Z,29.1870,-90.6093,2.11,8.47,11111222 
LUMCON,ioos:station:LUMCON:102:1,2019-06-01T22:30:00Z,29.1870,-90.6093,2.08,8.52,11111222 
LUMCON,ioos:station:LUMCON:102:1,2019-06-01T22:45:00Z,29.1870,-90.6093,2.07,8.63,11111222 
LUMCON,ioos:station:LUMCON:102:1,2019-06-01T23:00:00Z,29.1870,-90.6093,2.05,8.5,11111222 
LUMCON,ioos:station:LUMCON:102:1,2019-06-01T23:15:00Z,29.1870,-90.6093,2.04,8.54,11111222 
LUMCON,ioos:station:LUMCON:102:1,2019-06-01T23:30:00Z,29.1870,-90.6093,2.03,8.75,11111222 
LUMCON,ioos:station:LUMCON:102:1,2019-06-01T23:45:00Z,29.1870,-90.6093,2.02,8.38,11111222 
LUMCON,ioos:station:LUMCON:102:1,2019-06-02T00:00:00Z,29.1870,-90.6093,2.02,8.13,11111222 
LUMCON,ioos:station:LUMCON:102:1,2019-06-02T00:15:00Z,29.1870,-90.6093,2.02,8.0,11111222 
LUMCON,ioos:station:LUMCON:102:1,2019-06-02T00:30:00Z,29.1870,-90.6093,2.01,7.77,11111222 
LUMCON,ioos:station:LUMCON:102:1,2019-06-02T00:45:00Z,29.1870,-90.6093,2.03,7.87,11111222 
LUMCON,ioos:station:LUMCON:102:1,2019-06-02T01:00:00Z,29.1870,-90.6093,2.02,7.77,11111222 
LUMCON,ioos:station:LUMCON:102:1,2019-06-02T01:15:00Z,29.1870,-90.6093,2.01,7.9,11111222 
LUMCON,ioos:station:LUMCON:102:1,2019-06-02T01:30:00Z,29.1870,-90.6093,2.01,7.68,11111222 
LUMCON,ioos:station:LUMCON:102:1,2019-06-02T01:45:00Z,29.1870,-90.6093,2.02,7.5,11111222 
LUMCON,ioos:station:LUMCON:102:1,2019-06-02T02:00:00Z,29.1870,-90.6093,2.02,7.39,11111222 
LUMCON,ioos:station:LUMCON:102:1,2019-06-02T02:15:00Z,29.1870,-90.6093,2.04,7.9,11111222 
LUMCON,ioos:station:LUMCON:102:1,2019-06-02T02:30:00Z,29.1870,-90.6093,2.03,7.58,11111222 
LUMCON,ioos:station:LUMCON:102:1,2019-06-02T02:45:00Z,29.1870,-90.6093,2.04,7.68,11111222 
LUMCON,ioos:station:LUMCON:102:1,2019-06-02T03:00:00Z,29.1870,-90.6093,2.05,7.61,11111222 
LUMCON,ioos:station:LUMCON:102:1,2019-06-02T03:15:00Z,29.1870,-90.6093,2.07,6.75,11111222 
LUMCON,ioos:station:LUMCON:102:1,2019-06-02T03:30:00Z,29.1870,-90.6093,2.08,7.16,11111222 
LUMCON,ioos:station:LUMCON:102:1,2019-06-02T03:45:00Z,29.1870,-90.6093,2.08,7.34,11111222 
LUMCON,ioos:station:LUMCON:102:1,2019-06-02T04:00:00Z,29.1870,-90.6093,2.1,7.75,11111222 
LUMCON,ioos:station:LUMCON:102:1,2019-06-02T04:15:00Z,29.1870,-90.6093,2.11,7.96,11111222 
LUMCON,ioos:station:LUMCON:102:1,2019-06-02T04:30:00Z,29.1870,-90.6093,2.13,8.2,11111222 
LUMCON,ioos:station:LUMCON:102:1,2019-06-02T04:45:00Z,29.1870,-90.6093,2.15,8.09,11111222 
LUMCON,ioos:station:LUMCON:102:1,2019-06-02T05:00:00Z,29.1870,-90.6093,2.16,8.37,11111222 
LUMCON,ioos:station:LUMCON:102:1,2019-06-02T05:15:00Z,29.1870,-90.6093,2.18,8.36,11111222 
LUMCON,ioos:station:LUMCON:102:1,2019-06-02T05:30:00Z,29.1870,-90.6093,2.18,7.97,11111222 
LUMCON,ioos:station:LUMCON:102:1,2019-06-02T05:45:00Z,29.1870,-90.6093,2.18,7.68,11111222 
LUMCON,ioos:station:LUMCON:102:1,2019-06-02T06:00:00Z,29.1870,-90.6093,2.2,7.82,11111222 
LUMCON,ioos:station:LUMCON:102:1,2019-06-02T06:15:00Z,29.1870,-90.6093,2.21,7.71,11111222 
LUMCON,ioos:station:LUMCON:102:1,2019-06-02T06:30:00Z,29.1870,-90.6093,2.23,7.8,11111222 
LUMCON,ioos:station:LUMCON:102:1,2019-06-02T06:45:00Z,29.1870,-90.6093,2.25,7.63,11111222 
LUMCON,ioos:station:LUMCON:102:1,2019-06-02T07:00:00Z,29.1870,-90.6093,2.27,7.63,11111222 
LUMCON,ioos:station:LUMCON:102:1,2019-06-02T07:15:00Z,29.1870,-90.6093,2.27,7.59,11111222 
LUMCON,ioos:station:LUMCON:102:1,2019-06-02T07:30:00Z,29.1870,-90.6093,2.28,7.6,11111222 
LUMCON,ioos:station:LUMCON:102:1,2019-06-02T07:45:00Z,29.1870,-90.6093,2.29,7.61,11111222 
LUMCON,ioos:station:LUMCON:102:1,2019-06-02T08:00:00Z,29.1870,-90.6093,2.3,7.51,11111222 
LUMCON,ioos:station:LUMCON:102:1,2019-06-02T08:15:00Z,29.1870,-90.6093,2.31,7.49,11111222 
LUMCON,ioos:station:LUMCON:102:1,2019-06-02T08:30:00Z,29.1870,-90.6093,2.32,7.46,11111222 
LUMCON,ioos:station:LUMCON:102:1,2019-06-02T08:45:00Z,29.1870,-90.6093,2.33,7.39,11111222 
LUMCON,ioos:station:LUMCON:102:1,2019-06-02T09:00:00Z,29.1870,-90.6093,2.34,7.36,11111222 
LUMCON,ioos:station:LUMCON:102:1,2019-06-02T09:15:00Z,29.1870,-90.6093,2.35,7.31,11111222 
LUMCON,ioos:station:LUMCON:102:1,2019-06-02T09:30:00Z,29.1870,-90.6093,2.36,7.25,11111222 
LUMCON,ioos:station:LUMCON:102:1,2019-06-02T09:45:00Z,29.1870,-90.6093,2.37,7.19,11111222 
LUMCON,ioos:station:LUMCON:102:1,2019-06-02T10:00:00Z,29.1870,-90.6093,2.38,7.11,11111222 
LUMCON,ioos:station:LUMCON:102:1,2019-06-02T10:15:00Z,29.1870,-90.6093,2.39,7.0,11111222 
LUMCON,ioos:station:LUMCON:102:1,2019-06-02T10:30:00Z,29.1870,-90.6093,2.39,6.99,11111222 
LUMCON,ioos:station:LUMCON:102:1,2019-06-02T10:45:00Z,29.1870,-90.6093,2.4,6.87,11111222 
LUMCON,ioos:station:LUMCON:102:1,2019-06-02T11:00:00Z,29.1870,-90.6093,2.41,6.76,11111222 
LUMCON,ioos:station:LUMCON:102:1,2019-06-02T11:15:00Z,29.1870,-90.6093,2.42,6.71,11111222 
LUMCON,ioos:station:LUMCON:102:1,2019-06-02T11:30:00Z,29.1870,-90.6093,2.43,6.7,11111222 
LUMCON,ioos:station:LUMCON:102:1,2019-06-02T11:45:00Z,29.1870,-90.6093,2.43,6.66,11111222 
LUMCON,ioos:station:LUMCON:102:1,2019-06-02T12:00:00Z,29.1870,-90.6093,2.44,6.58,11111222 
LUMCON,ioos:station:LUMCON:102:1,2019-06-02T12:15:00Z,29.1870,-90.6093,2.44,6.64,11111222 
LUMCON,ioos:station:LUMCON:102:1,2019-06-02T12:30:00Z,29.1870,-90.6093,2.45,6.65,11111222 
LUMCON,ioos:station:LUMCON:102:1,2019-06-02T12:45:00Z,29.1870,-90.6093,2.45,6.51,11111222 
LUMCON,ioos:station:LUMCON:102:1,2019-06-02T13:00:00Z,29.1870,-90.6093,2.46,6.33,11111222 
LUMCON,ioos:station:LUMCON:102:1,2019-06-02T13:15:00Z,29.1870,-90.6093,2.46,6.32,11111222 
LUMCON,ioos:station:LUMCON:102:1,2019-06-02T13:30:00Z,29.1870,-90.6093,2.46,6.33,11111222 
LUMCON,ioos:station:LUMCON:102:1,2019-06-02T13:45:00Z,29.1870,-90.6093,2.46,6.44,11111222 
LUMCON,ioos:station:LUMCON:102:1,2019-06-02T14:00:00Z,29.1870,-90.6093,2.47,6.42,11111222 
LUMCON,ioos:station:LUMCON:102:1,2019-06-02T14:15:00Z,29.1870,-90.6093,2.47,6.39,11111222 
LUMCON,ioos:station:LUMCON:102:1,2019-06-02T14:30:00Z,29.1870,-90.6093,2.47,6.28,11111222 
LUMCON,ioos:station:LUMCON:102:1,2019-06-02T14:45:00Z,29.1870,-90.6093,2.46,6.35,11111222 
LUMCON,ioos:station:LUMCON:102:1,2019-06-02T15:00:00Z,29.1870,-90.6093,2.48,6.27,11111222 
LUMCON,ioos:station:LUMCON:102:1,2019-06-02T15:15:00Z,29.1870,-90.6093,2.47,6.11,11111222 
LUMCON,ioos:station:LUMCON:102:1,2019-06-02T15:30:00Z,29.1870,-90.6093,2.48,6.25,11111222 
LUMCON,ioos:station:LUMCON:102:1,2019-06-02T15:45:00Z,29.1870,-90.6093,2.47,6.14,11111222 
LUMCON,ioos:station:LUMCON:102:1,2019-06-02T16:00:00Z,29.1870,-90.6093,2.46,6.31,11111222 
LUMCON,ioos:station:LUMCON:102:1,2019-06-02T16:15:00Z,29.1870,-90.6093,2.45,6.1,11111222 
LUMCON,ioos:station:LUMCON:102:1,2019-06-02T16:30:00Z,29.1870,-90.6093,2.44,6.29,11111222 
LUMCON,ioos:station:LUMCON:102:1,2019-06-02T16:45:00Z,29.1870,-90.6093,2.43,5.87,11111222 
LUMCON,ioos:station:LUMCON:102:1,2019-06-02T17:00:00Z,29.1870,-90.6093,2.42,5.09,11111222 
LUMCON,ioos:station:LUMCON:102:1,2019-06-02T17:15:00Z,29.1870,-90.6093,2.41,5.28,11111222 
LUMCON,ioos:station:LUMCON:102:1,2019-06-02T17:30:00Z,29.1870,-90.6093,2.39,6.19,11111222 
LUMCON,ioos:station:LUMCON:102:1,2019-06-02T17:45:00Z,29.1870,-90.6093,2.38,6.49,11111222 
LUMCON,ioos:station:LUMCON:102:1,2019-06-02T18:00:00Z,29.1870,-90.6093,2.36,6.26,11111222 
LUMCON,ioos:station:LUMCON:102:1,2019-06-02T18:15:00Z,29.1870,-90.6093,2.35,6.13,11111222 
LUMCON,ioos:station:LUMCON:102:1,2019-06-02T18:30:00Z,29.1870,-90.6093,2.35,6.34,11111222 
LUMCON,ioos:station:LUMCON:102:1,2019-06-02T18:45:00Z,29.1870,-90.6093,2.34,6.51,11111222 
LUMCON,ioos:station:LUMCON:102:1,2019-06-02T19:00:00Z,29.1870,-90.6093,2.32,6.47,11111222 
LUMCON,ioos:station:LUMCON:102:1,2019-06-02T19:15:00Z,29.1870,-90.6093,2.3,6.43,11111222 
LUMCON,ioos:station:LUMCON:102:1,2019-06-02T19:30:00Z,29.1870,-90.6093,2.28,6.78,11111222 
LUMCON,ioos:station:LUMCON:102:1,2019-06-02T19:45:00Z,29.1870,-90.6093,2.26,7.08,11111222 
LUMCON,ioos:station:LUMCON:102:1,2019-06-02T20:00:00Z,29.1870,-90.6093,2.24,7.26,11111222 
LUMCON,ioos:station:LUMCON:102:1,2019-06-02T20:15:00Z,29.1870,-90.6093,2.21,7.38,11111222 
LUMCON,ioos:station:LUMCON:102:1,2019-06-02T20:30:00Z,29.1870,-90.6093,2.2,7.41,11111222 
LUMCON,ioos:station:LUMCON:102:1,2019-06-02T20:45:00Z,29.1870,-90.6093,2.18,7.68,11111222 
LUMCON,ioos:station:LUMCON:102:1,2019-06-02T21:00:00Z,29.1870,-90.6093,2.17,7.6,11111222 
LUMCON,ioos:station:LUMCON:102:1,2019-06-02T21:15:00Z,29.1870,-90.6093,2.15,7.54,11111222 
LUMCON,ioos:station:LUMCON:102:1,2019-06-02T21:30:00Z,29.1870,-90.6093,2.13,7.59,11111222 
LUMCON,ioos:station:LUMCON:102:1,2019-06-02T21:45:00Z,29.1870,-90.6093,2.11,7.52,11111222 
LUMCON,ioos:station:LUMCON:102:1,2019-06-02T22:00:00Z,29.1870,-90.6093,2.11,7.7,11111222 
LUMCON,ioos:station:LUMCON:102:1,2019-06-02T22:15:00Z,29.1870,-90.6093,2.09,7.52,11111222 
LUMCON,ioos:station:LUMCON:102:1,2019-06-02T22:30:00Z,29.1870,-90.6093,2.07,7.38,11111222 
LUMCON,ioos:station:LUMCON:102:1,2019-06-02T22:45:00Z,29.1870,-90.6093,2.08,7.85,11111222 
LUMCON,ioos:station:LUMCON:102:1,2019-06-02T23:00:00Z,29.1870,-90.6093,2.1,8.16,11111222 
LUMCON,ioos:station:LUMCON:102:1,2019-06-02T23:15:00Z,29.1870,-90.6093,2.09,8.16,11111222 
LUMCON,ioos:station:LUMCON:102:1,2019-06-02T23:30:00Z,29.1870,-90.6093,2.04,8.28,11111222 
LUMCON,ioos:station:LUMCON:102:1,2019-06-02T23:45:00Z,29.1870,-90.6093,2.04,8.37,11111222 
LUMCON,ioos:station:LUMCON:102:1,2019-06-03T00:00:00Z,29.1870,-90.6093,2.02,8.28,11111222 
LUMCON,ioos:station:LUMCON:102:1,2019-06-03T00:15:00Z,29.1870,-90.6093,2.01,8.22,11111222 
LUMCON,ioos:station:LUMCON:102:1,2019-06-03T00:30:00Z,29.1870,-90.6093,1.96,7.95,11111222 
LUMCON,ioos:station:LUMCON:102:1,2019-06-03T00:45:00Z,29.1870,-90.6093,1.95,8.03,11111222 
LUMCON,ioos:station:LUMCON:102:1,2019-06-03T01:00:00Z,29.1870,-90.6093,1.93,7.8,11111222 
LUMCON,ioos:station:LUMCON:102:1,2019-06-03T01:15:00Z,29.1870,-90.6093,1.94,7.8,11111222 
LUMCON,ioos:station:LUMCON:102:1,2019-06-03T01:30:00Z,29.1870,-90.6093,1.96,7.33,11111222 
LUMCON,ioos:station:LUMCON:102:1,2019-06-03T01:45:00Z,29.1870,-90.6093,1.97,7.37,11111222 
LUMCON,ioos:station:LUMCON:102:1,2019-06-03T02:00:00Z,29.1870,-90.6093,1.98,7.41,11111222 
LUMCON,ioos:station:LUMCON:102:1,2019-06-03T02:15:00Z,29.1870,-90.6093,1.99,7.09,11111222 
LUMCON,ioos:station:LUMCON:102:1,2019-06-03T02:30:00Z,29.1870,-90.6093,2.01,6.99,11111222 
LUMCON,ioos:station:LUMCON:102:1,2019-06-03T02:45:00Z,29.1870,-90.6093,2.0,6.82,11111222 
LUMCON,ioos:station:LUMCON:102:1,2019-06-03T03:00:00Z,29.1870,-90.6093,2.01,6.81,11111222 
LUMCON,ioos:station:LUMCON:102:1,2019-06-03T03:15:00Z,29.1870,-90.6093,2.01,6.5,11111222 
LUMCON,ioos:station:LUMCON:102:1,2019-06-03T03:30:00Z,29.1870,-90.6093,2.03,6.61,11111222 
LUMCON,ioos:station:LUMCON:102:1,2019-06-03T03:45:00Z,29.1870,-90.6093,2.04,6.51,11111222 
LUMCON,ioos:station:LUMCON:102:1,2019-06-03T04:00:00Z,29.1870,-90.6093,2.07,6.67,11111222 
LUMCON,ioos:station:LUMCON:102:1,2019-06-03T04:15:00Z,29.1870,-90.6093,2.08,6.85,11111222 
LUMCON,ioos:station:LUMCON:102:1,2019-06-03T04:30:00Z,29.1870,-90.6093,2.1,6.73,11111222 
LUMCON,ioos:station:LUMCON:102:1,2019-06-03T04:45:00Z,29.1870,-90.6093,2.12,6.62,11111222 
LUMCON,ioos:station:LUMCON:102:1,2019-06-03T05:00:00Z,29.1870,-90.6093,2.13,6.65,11111222 
LUMCON,ioos:station:LUMCON:102:1,2019-06-03T05:15:00Z,29.1870,-90.6093,2.15,6.8,11111222 
LUMCON,ioos:station:LUMCON:102:1,2019-06-03T05:30:00Z,29.1870,-90.6093,2.16,6.83,11111222 
LUMCON,ioos:station:LUMCON:102:1,2019-06-03T05:45:00Z,29.1870,-90.6093,2.18,6.97,11111222 
LUMCON,ioos:station:LUMCON:102:1,2019-06-03T06:00:00Z,29.1870,-90.6093,2.19,6.76,11111222 
LUMCON,ioos:station:LUMCON:102:1,2019-06-03T06:15:00Z,29.1870,-90.6093,2.21,6.8,11111222 
LUMCON,ioos:station:LUMCON:102:1,2019-06-03T06:30:00Z,29.1870,-90.6093,2.23,7.01,11111222 
LUMCON,ioos:station:LUMCON:102:1,2019-06-03T06:45:00Z,29.1870,-90.6093,2.24,7.05,11111222 
LUMCON,ioos:station:LUMCON:102:1,2019-06-03T07:00:00Z,29.1870,-90.6093,2.26,7.2,11111222 
LUMCON,ioos:station:LUMCON:102:1,2019-06-03T07:15:00Z,29.1870,-90.6093,2.27,7.37,11111222 
LUMCON,ioos:station:LUMCON:102:1,2019-06-03T07:30:00Z,29.1870,-90.6093,2.29,7.23,11111222 
LUMCON,ioos:station:LUMCON:102:1,2019-06-03T07:45:00Z,29.1870,-90.6093,2.3,7.14,11111222 
LUMCON,ioos:station:LUMCON:102:1,2019-06-03T08:00:00Z,29.1870,-90.6093,2.31,7.06,11111222 
LUMCON,ioos:station:LUMCON:102:1,2019-06-03T08:15:00Z,29.1870,-90.6093,2.32,7.08,11111222 
LUMCON,ioos:station:LUMCON:102:1,2019-06-03T08:30:00Z,29.1870,-90.6093,2.34,6.98,11111222 
LUMCON,ioos:station:LUMCON:102:1,2019-06-03T08:45:00Z,29.1870,-90.6093,2.34,6.82,11111222 
LUMCON,ioos:station:LUMCON:102:1,2019-06-03T09:00:00Z,29.1870,-90.6093,2.35,6.8,11111222 
LUMCON,ioos:station:LUMCON:102:1,2019-06-03T09:15:00Z,29.1870,-90.6093,2.36,6.7,11111222 
LUMCON,ioos:station:LUMCON:102:1,2019-06-03T09:30:00Z,29.1870,-90.6093,2.37,6.78,11111222 
LUMCON,ioos:station:LUMCON:102:1,2019-06-03T09:45:00Z,29.1870,-90.6093,2.39,6.67,11111222 
LUMCON,ioos:station:LUMCON:102:1,2019-06-03T10:00:00Z,29.1870,-90.6093,2.41,6.67,11111222 
LUMCON,ioos:station:LUMCON:102:1,2019-06-03T10:15:00Z,29.1870,-90.6093,2.41,6.68,11111222 
LUMCON,ioos:station:LUMCON:102:1,2019-06-03T10:30:00Z,29.1870,-90.6093,2.42,6.58,11111222 
LUMCON,ioos:station:LUMCON:102:1,2019-06-03T10:45:00Z,29.1870,-90.6093,2.42,6.5,11111222 
LUMCON,ioos:station:LUMCON:102:1,2019-06-03T11:00:00Z,29.1870,-90.6093,2.44,6.37,11111222 
LUMCON,ioos:station:LUMCON:102:1,2019-06-03T11:15:00Z,29.1870,-90.6093,2.44,6.44,11111222 
LUMCON,ioos:station:LUMCON:102:1,2019-06-03T11:30:00Z,29.1870,-90.6093,2.46,6.21,11111222 
LUMCON,ioos:station:LUMCON:102:1,2019-06-03T11:45:00Z,29.1870,-90.6093,2.47,6.26,11111222 
LUMCON,ioos:station:LUMCON:102:1,2019-06-03T12:00:00Z,29.1870,-90.6093,2.47,6.17,11111222 
LUMCON,ioos:station:LUMCON:102:1,2019-06-03T12:15:00Z,29.1870,-90.6093,2.48,6.11,11111222 
LUMCON,ioos:station:LUMCON:102:1,2019-06-03T12:30:00Z,29.1870,-90.6093,2.49,6.05,11111222 
LUMCON,ioos:station:LUMCON:102:1,2019-06-03T12:45:00Z,29.1870,-90.6093,2.5,5.92,11111222 
LUMCON,ioos:station:LUMCON:102:1,2019-06-03T13:00:00Z,29.1870,-90.6093,2.5,5.91,11111222 
LUMCON,ioos:station:LUMCON:102:1,2019-06-03T13:15:00Z,29.1870,-90.6093,2.5,5.73,11111222 
LUMCON,ioos:station:LUMCON:102:1,2019-06-03T13:30:00Z,29.1870,-90.6093,2.49,5.72,11111222 
LUMCON,ioos:station:LUMCON:102:1,2019-06-03T13:45:00Z,29.1870,-90.6093,2.51,5.78,11111222 
LUMCON,ioos:station:LUMCON:102:1,2019-06-03T14:00:00Z,29.1870,-90.6093,2.51,5.62,11111222 
LUMCON,ioos:station:LUMCON:102:1,2019-06-03T14:15:00Z,29.1870,-90.6093,2.5,5.21,11111222 
LUMCON,ioos:station:LUMCON:102:1,2019-06-03T14:30:00Z,29.1870,-90.6093,2.5,5.51,11111222 
LUMCON,ioos:station:LUMCON:102:1,2019-06-03T14:45:00Z,29.1870,-90.6093,2.49,5.63,11111222 
LUMCON,ioos:station:LUMCON:102:1,2019-06-03T15:00:00Z,29.1870,-90.6093,2.51,5.48,11111222 
LUMCON,ioos:station:LUMCON:102:1,2019-06-03T15:15:00Z,29.1870,-90.6093,2.5,5.64,11111222 
LUMCON,ioos:station:LUMCON:102:1,2019-06-03T15:30:00Z,29.1870,-90.6093,2.5,5.55,11111222 
LUMCON,ioos:station:LUMCON:102:1,2019-06-03T15:45:00Z,29.1870,-90.6093,2.51,5.55,11111222 
LUMCON,ioos:station:LUMCON:102:1,2019-06-03T16:00:00Z,29.1870,-90.6093,2.52,5.7,11111222 
LUMCON,ioos:station:LUMCON:102:1,2019-06-03T16:15:00Z,29.1870,-90.6093,2.5,5.73,11111222 
LUMCON,ioos:station:LUMCON:102:1,2019-06-03T16:30:00Z,29.1870,-90.6093,2.48,4.72,11111222 
LUMCON,ioos:station:LUMCON:102:1,2019-06-03T16:45:00Z,29.1870,-90.6093,2.48,5.18,11111222 
LUMCON,ioos:station:LUMCON:102:1,2019-06-03T17:00:00Z,29.1870,-90.6093,2.46,5.08,11111222 
LUMCON,ioos:station:LUMCON:102:1,2019-06-03T17:15:00Z,29.1870,-90.6093,2.47,5.22,11111222 
LUMCON,ioos:station:LUMCON:102:1,2019-06-03T17:30:00Z,29.1870,-90.6093,2.47,5.6,11111222 